Jenks, OK

2:43 AM CDT on July 26, 2016 (GMT -0500)
Jones Jr.

Weather History for KRVS - September, 2013

Change the Weather History Date:

Monday, September 30, 2013

  Actual Average (KTUL) Record (KTUL)
Temperature  
Mean Temperature 66 °F 67 °F  
Max Temperature 84 °F 78 °F 99 °F (1979)
Min Temperature 50 °F 56 °F 35 °F (1984)
Degree Days  
Heating Degree Days 0 2  
Month to date heating degree days 22  
Since 1 July heating degree days 24  
Cooling Degree Days 1 4  
Month to date cooling degree days 264  
Year to date cooling degree days 1965  
Growing Degree Days 16 (Base 50)    
Moisture  
Dew Point 55 °F    
Average Humidity 74    
Maximum Humidity 100    
Minimum Humidity 36    
Precipitation  
Precipitation 0.01 in 0.13 in 1.85 in (1959)
Month to date precipitation 4.26  
Year to date precipitation 31.74  
Sea Level Pressure  
Sea Level Pressure 29.91 in    
Wind  
Wind Speed 2 mph (South)    
Max Wind Speed 10 mph    
Max Gust Speed -    
Visibility 9 miles    
Events      
T = Trace of Precipitation, MM = Missing Value Source: NWS Daily Summary

Daily Weather History Graph

Daily Weather History Graph

Search for Another Location

Airport or City:

Trip Planner

Search our weather history database for the weather conditions in past years. The results will help you decide how hot, cold, wet, or windy it might be!

Date:

Astronomy

Sep. 30, 2013 Rise Set
Actual Time 7:18 AM CDT 7:08 PM CDT
Civil Twilight 6:52 AM CDT 7:34 PM CDT
Nautical Twilight 6:23 AM CDT 8:03 PM CDT
Astronomical Twilight 5:53 AM CDT 8:33 PM CDT
Moon 3:03 AM CDT (9/30) 4:33 PM CDT (9/30)
Length of Visible Light 12h 41m
Length of Day
11h 50m
Waning Crescent, 19% of the Moon is Illuminated
Sep 30
Waning Crescent
Oct 4
New
Oct 11
First Quarter
Oct 18
Full
Oct 26
Last Quarter

Hourly Weather History & Observations

Time (CDT) Temp. Heat Index Dew Point Humidity Pressure Visibility Wind Dir Wind Speed Gust Speed Precip Events Conditions
12:53 AM 54.0 °F - 53.1 °F 97% 29.97 in 10.0 mi Calm Calm - N/A   Clear
1:53 AM 53.1 °F - 52.0 °F 96% 29.95 in 9.0 mi Calm Calm - 0.01 in   Clear
2:53 AM 53.1 °F - 52.0 °F 96% 29.94 in 8.0 mi Calm Calm - N/A   Clear
3:53 AM 52.0 °F - 51.1 °F 97% 29.93 in 5.0 mi Calm Calm - N/A   Clear
4:53 AM 51.1 °F - 51.1 °F 100% 29.93 in 7.0 mi Calm Calm - N/A   Clear
5:53 AM 51.1 °F - 50.0 °F 96% 29.94 in 6.0 mi Calm Calm - N/A   Clear
6:53 AM 50.0 °F - 48.9 °F 96% 29.94 in 9.0 mi WNW 3.5 mph - N/A   Clear
7:53 AM 51.1 °F - 51.1 °F 100% 29.96 in 8.0 mi Calm Calm - N/A   Clear
8:53 AM 57.9 °F - 55.0 °F 90% 29.95 in 10.0 mi Calm Calm - N/A   Clear
9:53 AM 64.0 °F - 55.9 °F 75% 29.95 in 10.0 mi Calm Calm - N/A   Clear
10:53 AM 71.1 °F - 57.9 °F 63% 29.95 in 10.0 mi Variable 3.5 mph - N/A   Clear
11:53 AM 75.0 °F - 55.9 °F 51% 29.93 in 10.0 mi South 5.8 mph - N/A   Clear
12:53 PM 79.0 °F - 53.1 °F 40% 29.91 in 10.0 mi Variable 6.9 mph - N/A   Clear
1:53 PM 81.0 °F 80.5 °F 54.0 °F 39% 29.88 in 10.0 mi South 8.1 mph - N/A   Clear
2:53 PM 82.0 °F 81.3 °F 54.0 °F 38% 29.86 in 10.0 mi South 9.2 mph - N/A   Clear
3:53 PM 82.9 °F 81.8 °F 53.1 °F 36% 29.85 in 10.0 mi South 10.4 mph - N/A   Clear
4:53 PM 82.9 °F 82.1 °F 55.9 °F 39% 29.85 in 10.0 mi South 10.4 mph - N/A   Clear
5:53 PM 82.0 °F 81.4 °F 55.0 °F 39% 29.85 in 10.0 mi SSE 6.9 mph - N/A   Clear
6:53 PM 80.1 °F 80.2 °F 55.9 °F 43% 29.84 in 10.0 mi South 3.5 mph - N/A   Clear
7:53 PM 66.0 °F - 60.1 °F 81% 29.86 in 10.0 mi Calm Calm - N/A   Clear
8:53 PM 64.0 °F - 60.1 °F 87% 29.87 in 10.0 mi Calm Calm - N/A   Clear
9:53 PM 62.1 °F - 60.1 °F 93% 29.88 in 10.0 mi Calm Calm - N/A   Clear
10:53 PM 63.0 °F - 59.0 °F 87% 29.89 in 10.0 mi Calm Calm - N/A   Clear
11:53 PM 61.0 °F - 59.0 °F 93% 29.89 in 10.0 mi Calm Calm - N/A   Clear